Regional Weather Roundup
Issued by NWS

Home | Current Version | Previous Version | Graphics & Text | Print | Product List | Glossary Off
Versions: 1 2 3 4 5 6 7 8 9 10 11 12 13 14 15 16 17 18 19 20 21 22 23 24 25 26 27 28 29 30 31 32 33 34 35 36 37 38 39 40 41 42 43 44 45 46 47 48 49 50

000
ASUS44 KFWD 020715
RWRTX
NORTH TEXAS HOURLY WEATHER ROUNDUP
NATIONAL WEATHER SERVICE FORT WORTH TX
100 AM CST MON MAR 02 2015

NOTE: "FAIR" INDICATES FEW OR NO CLOUDS BELOW 12,000 FEET WITH NO
SIGNIFICANT WEATHER AND/OR OBSTRUCTIONS TO VISIBILITY.

TXZ118-119-020800-
DALLAS/FORT WORTH METROPLEX

CITY           SKY/WX    TMP DP  RH WIND       PRES   REMARKS
DFW AIRPORT    CLOUDY    36  33  89 N15       30.38F WCI  27
DALLAS LOVE    CLOUDY    37  33  85 N12       30.38F WCI  29
FTW MEACHAM    RAIN      36  32  85 N10       30.39S FOG     WCI  28
DAL-EXECUTIVE  CLOUDY    36  35  96 N12       30.37S FOG     WCI  28
FTW-ALLIANCE   CLOUDY    35  32  88 N13       30.39F WCI  26
FTW-SPINKS     CLOUDY    36  34  94 N10       30.41R FOG     WCI  28
ARLINGTON      CLOUDY    37  33  85 N13       30.40R WCI  29
GRAND PRAIRIE  CLOUDY    36  36 100 N9        30.40F WCI  29
ADDISON        CLOUDY    37  35  96 N10G16    30.41R WCI  29
MESQUITE       CLOUDY    36  35  95 N12       30.38F WCI  28
LANCASTER      CLOUDY    36  34  92 N8        30.39S FOG     WCI  30
$$

TXZ091>094-102>105-117-120-121-131>134-020800-
NORTH CENTRAL TEXAS

CITY           SKY/WX    TMP DP  RH WIND       PRES   REMARKS
SHRMAN/DENISON CLOUDY    35  35 100 N9        30.42S FOG     WCI  28
GAINESVILLE    CLOUDY    33  32  96 N9        30.43S FOG     WCI  25
BOWIE          CLOUDY    32  31  97 N7        30.41S FOG     WCI  26
BRIDGEPORT     CLOUDY    34  34 100 N7        30.44S WCI  28
DECATUR        CLOUDY    33  32  97 N8        30.39F WCI  26
DENTON         CLOUDY    35  32  88 N12       30.40F WCI  27
MCKINNEY       CLOUDY    36  33  89 N13       30.39S WCI  27
GREENVILLE     CLOUDY    36  34  93 N7        30.38S FOG     WCI  30
TERRELL        CLOUDY    38  35  89 N8        30.38S FOG     WCI  32
WAXAHACHIE     DRIZZLE   36  36 100 N9        30.38S WCI  29
CLEBURNE       MIX PCPN  36  36 100 N13G21    30.39S WCI  27
GRANBURY       CLOUDY    37  35  92 NW6       30.42S FOG     WCI  32
$$

TXZ083>090-098>101-113>116-127>130-139>142-154-155-020800-
WESTERN NORTH TEXAS

CITY           SKY/WX    TMP DP  RH WIND       PRES   REMARKS
WICHITA FALLS  CLOUDY    33  29  85 N10       30.44S WCI  25
WF-KICKAPOO    CLOUDY    35  31  85 N9        30.45F WCI  28
VERNON         CLOUDY    35  27  73 NE3       30.45S
ABILENE        CLOUDY    32  31  96 NE8       30.38F FOG     WCI  25
ABILENE-DYESS  DRIZZLE   32  29  87 CALM      30.37F
BRECKENRIDGE   DRIZZLE   34  34 100 N8        30.41S WCI  27
GRAHAM         CLOUDY    33  33 100 N7        30.41F FOG     WCI  26
MINERAL WELLS  CLOUDY    34  32  92 N9        30.39S FOG     WCI  27
STEPHENVILLE   CLOUDY    34  33  95 N12       30.40S WCI  25
COMANCHE       CLOUDY    33  33 100 N10       30.39S FOG     WCI  25
BROWNWOOD      LGT RAIN  34  32  93 N8        30.39S WCI  27
COLEMAN        MIX PCPN  33  33 100 N10       30.38F WCI  25
BRADY          MIX PCPN  34  34 100 N13       30.33F WCI  25
$$

TXZ143>147-156>162-174-175-020800-
CENTRAL TEXAS

CITY           SKY/WX    TMP DP  RH WIND       PRES   REMARKS
WACO           CLOUDY    37  36  96 N10       30.37F FOG     WCI  30
WACO-MCGREGOR    N/A     37  32  81 N14       30.38R WCI  29
HILLSBORO      CLOUDY    37  35  92 N12       30.38R FOG     WCI  29
CORSICANA      CLOUDY    39  37  92 N9        30.37R FOG     WCI  33
MEXIA          CLOUDY    38  37  97 N10       30.33F FOG     WCI  30
HEARNE         CLOUDY    40  39  98 NW8       30.36S WCI  34
CAMERON        LGT RAIN  39  39  98 N9        30.34S WCI  33
TEMPLE         CLOUDY    37  32  81 NW12      30.35R WCI  30
KILLEEN        LGT RAIN  36  36 100 N10       30.34R FOG     WCI  28
KILLEEN-SKYLRK CLOUDY    37  32  81 N7        30.33R WCI  32
FORT HOOD      LGT SNOW  36  36 100 N14       30.34R FOG     WCI  27
GATESVILLE     CLOUDY    36  36 100 N8        30.37F FOG     WCI  29
HAMILTON       RAIN      35  35 100 N14       30.37S WCI  26
LAMPASAS       LGT SNOW  35  34  97 N6        30.34S WCI  30
$$

TXZ095>097-106>112-122>126-135>138-148>153-164>167-020800-
EAST TEXAS

CITY           SKY/WX    TMP DP  RH WIND       PRES   REMARKS
PARIS          CLOUDY    37  32  81 N10       30.40R WCI  30
SULPHUR SPRNGS CLOUDY    38  37  96 N10       30.39F WCI  31
MOUNT PLEASANT CLOUDY    42  42 100 N6        30.38S WCI  38
GILMER         DRIZZLE   42  41  99 N5        30.35S WCI  39
MINEOLA        CLOUDY    39  39 100 N8        30.37R FOG     WCI  34
TYLER          LGT RAIN  42  40  92 N9        30.34R FOG     WCI  37
LONGVIEW       LGT RAIN  43  41  93 N5        30.33S FOG
MARSHALL       CLOUDY    43  41  93 N5        30.36S
ATHENS         CLOUDY    37  37 100 N7        30.34F FOG     WCI  32
PALESTINE      CLOUDY    43  43 100 NW5       30.35R FOG
JACKSONVILLE   DRZL/FOG  43  43  99 N8        30.33S VSB 3/4 WCI  38
HENDERSON      CLOUDY    42  42 100 N6        30.35R WCI  39
NACOGDOCHES    CLOUDY    45  41  87 N3        30.32S
LUFKIN         CLOUDY    47  44  90 N5        30.31R FOG
$$

SUPPLEMENTAL OBSERVATIONS (CENTRAL)

CITY           SKY/WX    TMP DP  RH WIND       PRES   REMARKS
$$

SUPPLEMENTAL OBSERVATIONS (WEST)

CITY           SKY/WX    TMP DP  RH WIND       PRES   REMARKS
$$

SUPPLEMENTAL OBSERVATIONS (EAST)

CITY           SKY/WX    TMP DP  RH WIND       PRES   REMARKS
$$

SUPPLEMENTAL OBSERVATIONS ARE A COLLECTION OF AUTOMATED INSTRUMENTS
THAT ARE MAINTAINED BY A VARIETY OF FEDERAL AND STATE AGENCIES.
CERTAIN ELEMENTS...SUCH AS HUMIDITY VALUES AND SUSTAINED WIND
SPEEDS...MAY BE APPROXIMATED.



USA.gov is the U.S. government's official web portal to all federal, state and local government web resources and services.